This is the latest recevied weather packets stored in our database for station/object K3MV-13. If no packets are shown the sender has not sent any weather packets the latest 10 day(s).
| Time | Temp. | Humidity | Pressure | Rain* | Wind** | Luminosity | Snow |
|---|---|---|---|---|---|---|---|
| 1777722221 | 2.78° C | 86% | 1015 hPa | 0 mm | - | 59 W/m² | - |
| 1777721917 | 2.78° C | 86% | 1015.2 hPa | 0 mm | - | 40 W/m² | - |
| 1777721615 | 2.22° C | 86% | 1015.1 hPa | 0 mm | - | 40 W/m² | - |
| 1777721313 | 2.22° C | 87% | 1015.2 hPa | 0 mm | - | 33 W/m² | - |
| 1777721010 | 2.22° C | 88% | 1015.1 hPa | 0 mm | - | 35 W/m² | - |
| 1777720708 | 2.22° C | 89% | 1015.3 hPa | 0 mm | - | 24 W/m² | - |
| 1777720405 | 2.22° C | 89% | 1015.1 hPa | 0 mm | - | 29 W/m² | - |
| 1777720103 | 2.22° C | 89% | 1015.1 hPa | 0 mm | - | 20 W/m² | - |
| 1777719800 | 2.22° C | 90% | 1015 hPa | 0 mm | - | 17 W/m² | - |
| 1777719498 | 2.22° C | 90% | 1014.8 hPa | 0 mm | - | 16 W/m² | - |
| 1777719194 | 2.22° C | 90% | 1014.9 hPa | 0 mm | - | 17 W/m² | - |
| 1777718892 | 2.22° C | 90% | 1014.8 hPa | 0 mm | - | 16 W/m² | - |
| 1777718589 | 2.22° C | 91% | 1014.7 hPa | 0 mm | - | 13 W/m² | - |
| 1777718286 | 2.22° C | 91% | 1014.8 hPa | 0 mm | - | 9 W/m² | - |
| 1777717983 | 2.22° C | 91% | 1014.7 hPa | 0 mm | - | 7 W/m² | - |
| 1777717681 | 1.67° C | 91% | 1014.8 hPa | 0 mm | - | 4 W/m² | - |
| 1777717377 | 1.67° C | 91% | 1014.8 hPa | 0 mm | - | 3 W/m² | - |
| 1777717075 | 1.67° C | 90% | 1014.6 hPa | 0 mm | - | 2 W/m² | - |
| 1777716773 | 2.22° C | 90% | 1014.4 hPa | 0 mm | - | 2 W/m² | - |
| 1777716471 | 2.22° C | 90% | 1014.8 hPa | 0 mm | - | 1 W/m² | - |
| 1777716169 | 2.22° C | 90% | 1014.6 hPa | 0 mm | - | 0 W/m² | - |
| 1777715867 | 2.22° C | 90% | 1014.7 hPa | 0 mm | - | 0 W/m² | - |
| 1777715564 | 2.22° C | 91% | 1014.9 hPa | 0 mm | - | 0 W/m² | - |
| 1777715262 | 2.22° C | 91% | 1014.9 hPa | 0 mm | - | 0 W/m² | - |
| 1777714960 | 2.22° C | 91% | 1014.8 hPa | 0 mm | - | 0 W/m² | - |
* Rain latest hour (hover to see other rain measurements)
** Current wind speed in m/s (hover to see current wind gust speed)